Location: Strawberry
(45.6646°N, 111.9596°W)
Time: 01:36:32
(UTC+00:00)

Vanguard 1 Rocket - Pass Details

Date: 02 October 2022
Orbit: 650 x 4225 km, 34.3° (Epoch: 05 December)

Event Time Altitude Azimuth Distance (km) Brightness Sun altitude
Rises 01:20:10 0° 211° (SSW) 8,411 12.8 -3.0°
Reaches altitude 10° 01:27:35 10° 202° (SSW) 7,155 12.3 -4.3°
Maximum altitude 01:45:03 29° 153° (SSE) 4,528 10.7 -7.4°
Enters shadow 01:56:27 10° 100° (E) 4,698 10.3 -9.3°
